Voltar ao catálogo

ARIANE 2 DEB

LostGTO
NORAD 33564·DEBRIS·🇫🇷 France

Lançado Jan 27, 1989 de Guiana Space Centre

Loading…

TLE

ObsoletoSource: Space-Track

Época: May 19, 2010, 01:57 UTC

1 33564U 89006BG  10139.08141688  .00000614  00000-0  87333-2 0  9991
2 33564   8.0942 239.5472 7156041 206.4341  85.1458  2.26434476 36448

Acompanhe ARIANE 2 DEB em tempo real com AllMySat

Download on the App Store